• In Italy
  • List of Countries
  • For 7 days
  • Water Temperature
  • Satellite Maps
  • Weather Map
  • Weather Widgets
  • user-avatar
    Login

    Hourly Weather Tel Aviv

    Today, 21 January, Sunday

    Time Temperature Precipitation Wind Pressure Humidity
    00:00 +14°C° 0 mm 2 mps 766 mmHg 69%
    01:00 +14°C° 0 mm 2 mps 766 mmHg 69%
    02:00 +13°C° 0 mm 2 mps 766 mmHg 70%
    03:00 +13°C° 0 mm 2 mps 765 mmHg 69%
    04:00 +12°C° 0 mm 3 mps 765 mmHg 67%
    05:00 +12°C° 0 mm 3 mps 765 mmHg 66%
    06:00 +13°C° 0 mm 3 mps 765 mmHg 63%
    07:00 +13°C° 0 mm 3 mps 764 mmHg 60%
    08:00 +15°C° 0 mm 2 mps 765 mmHg 61%
    09:00 +17°C° 0 mm 2 mps 764 mmHg 54%
    10:00 +18°C° 0 mm 3 mps 764 mmHg 48%
    11:00 +20°C° 0 mm 3 mps 764 mmHg 41%
    12:00 +20°C° 0 mm 3 mps 763 mmHg 39%
    13:00 +21°C° 0 mm 3 mps 762 mmHg 36%
    14:00 +22°C° 0 mm 3 mps 761 mmHg 31%
    15:00 +20°C° 0 mm 2 mps 761 mmHg 36%
    16:00 +19°C° 0 mm 2 mps 761 mmHg 41%
    17:00 +19°C° 0 mm 1 mps 761 mmHg 46%
    18:00 +19°C° 0 mm 1 mps 761 mmHg 44%
    19:00 +18°C° 0 mm 1 mps 761 mmHg 42%
    20:00 +18°C° 0 mm 1 mps 760 mmHg 41%
    21:00 +18°C° 0 mm 1 mps 760 mmHg 39%
    22:00 +17°C° 0 mm 2 mps 760 mmHg 37%
    23:00 +17°C° 0 mm 2 mps 760 mmHg 35%

    Tomorrow, 22 January, Monday

    Time Temperature Precipitation Wind Pressure Humidity
    00:00 +17°C° 0 mm 2 mps 759 mmHg 34%
    01:00 +16°C° 0 mm 3 mps 759 mmHg 33%
    02:00 +16°C° 0 mm 3 mps 759 mmHg 32%
    03:00 +15°C° 0 mm 4 mps 759 mmHg 32%
    04:00 +15°C° 0 mm 4 mps 758 mmHg 32%
    05:00 +15°C° 0 mm 5 mps 758 mmHg 32%
    06:00 +15°C° 0 mm 5 mps 758 mmHg 36%
    07:00 +16°C° 0 mm 6 mps 758 mmHg 39%
    08:00 +16°C° 0 mm 6 mps 758 mmHg 43%
    09:00 +17°C° 0 mm 7 mps 758 mmHg 42%
    10:00 +18°C° 0 mm 7 mps 759 mmHg 40%
    11:00 +20°C° 0 mm 8 mps 759 mmHg 39%
    12:00 +20°C° 0 mm 8 mps 758 mmHg 40%
    13:00 +20°C° 0 mm 8 mps 758 mmHg 40%
    14:00 +20°C° 0 mm 8 mps 757 mmHg 41%
    15:00 +18°C° 0 mm 7 mps 758 mmHg 45%
    16:00 +17°C° 0 mm 6 mps 758 mmHg 49%
    17:00 +16°C° 0 mm 5 mps 758 mmHg 53%
    18:00 +16°C° 0 mm 5 mps 758 mmHg 52%
    19:00 +16°C° 0 mm 5 mps 758 mmHg 52%
    20:00 +15°C° 0 mm 5 mps 758 mmHg 52%
    21:00 +15°C° 0.1 mm 6 mps 758 mmHg 52%
    22:00 +15°C° 0.1 mm 7 mps 758 mmHg 53%
    23:00 +15°C° 0.1 mm 8 mps 758 mmHg 53%

    Day after tomorrow, 23 January, Tuesday

    Time Temperature Precipitation Wind Pressure Humidity
    00:00 +15°C° 0.3 mm 9 mps 758 mmHg 56%
    01:00 +14°C° 0.3 mm 10 mps 758 mmHg 60%
    02:00 +14°C° 0.3 mm 10 mps 758 mmHg 63%
    03:00 +14°C° 0.9 mm 10 mps 758 mmHg 67%
    04:00 +14°C° 0.9 mm 11 mps 757 mmHg 71%
    05:00 +13°C° 0.9 mm 11 mps 757 mmHg 74%
    06:00 +14°C° 0.5 mm 11 mps 758 mmHg 74%
    07:00 +14°C° 0.5 mm 10 mps 758 mmHg 73%
    08:00 +14°C° 0.5 mm 10 mps 759 mmHg 73%
    09:00 +14°C° 0.6 mm 10 mps 759 mmHg 71%
    10:00 +15°C° 0.6 mm 9 mps 760 mmHg 70%
    11:00 +15°C° 0.6 mm 9 mps 760 mmHg 68%
    12:00 +15°C° 0.5 mm 9 mps 760 mmHg 69%
    13:00 +15°C° 0.5 mm 9 mps 760 mmHg 70%
    14:00 +15°C° 0.5 mm 8 mps 760 mmHg 71%
    15:00 +15°C° 0.3 mm 8 mps 760 mmHg 73%
    16:00 +15°C° 0.3 mm 7 mps 760 mmHg 74%
    17:00 +15°C° 0.3 mm 7 mps 760 mmHg 75%
    18:00 +15°C° 0.1 mm 6 mps 761 mmHg 76%
    19:00 +14°C° 0.1 mm 6 mps 761 mmHg 77%
    20:00 +14°C° 0.1 mm 6 mps 761 mmHg 78%
    21:00 +14°C° 0.1 mm 6 mps 762 mmHg 78%
    22:00 +14°C° 0.1 mm 6 mps 762 mmHg 78%
    23:00 +14°C° 0.1 mm 5 mps 762 mmHg 78%

    24 January, Wednesday

    Time Temperature Precipitation Wind Pressure Humidity
    00:00 +13°C° 0.1 mm 5 mps 762 mmHg 78%
    01:00 +13°C° 0.1 mm 5 mps 762 mmHg 78%
    02:00 +13°C° 0.1 mm 5 mps 762 mmHg 78%
    03:00 +13°C° 0.1 mm 5 mps 762 mmHg 78%
    04:00 +13°C° 0.1 mm 4 mps 762 mmHg 78%
    05:00 +13°C° 0.1 mm 4 mps 762 mmHg 79%
    06:00 +13°C° 0.1 mm 4 mps 762 mmHg 78%
    07:00 +13°C° 0.1 mm 4 mps 762 mmHg 77%
    08:00 +14°C° 0.1 mm 3 mps 762 mmHg 75%
    09:00 +15°C° 0.2 mm 4 mps 762 mmHg 71%
    10:00 +15°C° 0.2 mm 4 mps 762 mmHg 67%
    11:00 +17°C° 0.2 mm 4 mps 762 mmHg 63%
    12:00 +17°C° 0.3 mm 4 mps 762 mmHg 62%
    13:00 +16°C° 0.3 mm 5 mps 761 mmHg 61%
    14:00 +17°C° 0.3 mm 5 mps 761 mmHg 60%
    15:00 +17°C° 0.3 mm 4 mps 761 mmHg 63%
    16:00 +15°C° 0.3 mm 4 mps 761 mmHg 66%
    17:00 +16°C° 0.3 mm 3 mps 761 mmHg 69%
    18:00 +14°C° 0.4 mm 3 mps 761 mmHg 73%
    19:00 +15°C° 0.4 mm 2 mps 761 mmHg 76%
    20:00 +14°C° 0.4 mm 1 mps 762 mmHg 80%
    21:00 +14°C° 0.5 mm 1 mps 761 mmHg 81%
    22:00 +13°C° 0.5 mm 1 mps 761 mmHg 82%
    23:00 +13°C° 0.5 mm 1 mps 761 mmHg 83%

    25 January, Thursday

    Time Temperature Precipitation Wind Pressure Humidity
    00:00 +13°C° 0.3 mm 1 mps 761 mmHg 81%
    01:00 +13°C° 0.3 mm 2 mps 760 mmHg 80%
    02:00 +13°C° 0.3 mm 2 mps 760 mmHg 78%
    03:00 +12°C° 0.6 mm 3 mps 760 mmHg 77%
    04:00 +12°C° 0.6 mm 4 mps 760 mmHg 77%
    05:00 +12°C° 0.6 mm 5 mps 760 mmHg 77%
    06:00 +11°C° 1.3 mm 6 mps 760 mmHg 79%
    07:00 +11°C° 1.3 mm 6 mps 760 mmHg 82%
    08:00 +11°C° 1.3 mm 7 mps 760 mmHg 84%
    09:00 +12°C° 1 mm 7 mps 761 mmHg 81%
    10:00 +12°C° 1 mm 8 mps 761 mmHg 78%
    11:00 +12°C° 1 mm 9 mps 761 mmHg 74%
    12:00 +13°C° 0.5 mm 10 mps 760 mmHg 69%
    13:00 +13°C° 0.5 mm 10 mps 760 mmHg 65%
    14:00 +14°C° 0.5 mm 11 mps 759 mmHg 60%
    15:00 +13°C° 0.5 mm 10 mps 759 mmHg 63%
    16:00 +13°C° 0.5 mm 10 mps 759 mmHg 65%
    17:00 +12°C° 0.5 mm 10 mps 759 mmHg 68%
    18:00 +12°C° 0.7 mm 9 mps 759 mmHg 70%
    19:00 +12°C° 0.7 mm 9 mps 759 mmHg 72%
    20:00 +12°C° 0.7 mm 8 mps 760 mmHg 75%
    21:00 +12°C° 1.1 mm 9 mps 760 mmHg 76%
    22:00 +12°C° 1.1 mm 9 mps 760 mmHg 78%
    23:00 +11°C° 1.1 mm 10 mps 759 mmHg 80%

    26 January, Friday

    Time Temperature Precipitation Wind Pressure Humidity
    00:00 +11°C° 0.6 mm 11 mps 759 mmHg 78%
    01:00 +11°C° 0.6 mm 11 mps 759 mmHg 76%
    02:00 +9°C° 0.6 mm 12 mps 759 mmHg 74%
    03:00 +9°C° 0.5 mm 12 mps 759 mmHg 74%
    04:00 +9°C° 0.5 mm 12 mps 759 mmHg 74%
    05:00 +9°C° 0.5 mm 12 mps 759 mmHg 74%
    06:00 +9°C° 0.6 mm 13 mps 759 mmHg 73%
    07:00 +9°C° 0.6 mm 13 mps 760 mmHg 72%
    08:00 +9°C° 0.6 mm 13 mps 760 mmHg 71%
    09:00 +10°C° 0.6 mm 13 mps 760 mmHg 70%
    10:00 +10°C° 0.6 mm 14 mps 761 mmHg 68%
    11:00 +10°C° 0.6 mm 14 mps 761 mmHg 67%
    12:00 +10°C° 0.6 mm 13 mps 761 mmHg 67%
    13:00 +10°C° 0.6 mm 13 mps 761 mmHg 66%
    14:00 +12°C° 0.6 mm 13 mps 761 mmHg 66%
    15:00 +10°C° 0.4 mm 12 mps 761 mmHg 67%
    16:00 +10°C° 0.4 mm 12 mps 761 mmHg 68%
    17:00 +9°C° 0.4 mm 11 mps 762 mmHg 69%
    18:00 +9°C° 0.3 mm 10 mps 762 mmHg 69%
    19:00 +10°C° 0.3 mm 9 mps 762 mmHg 70%
    20:00 +10°C° 0.3 mm 8 mps 763 mmHg 70%
    21:00 +10°C° 0.5 mm 8 mps 763 mmHg 72%
    22:00 +10°C° 0.5 mm 7 mps 763 mmHg 74%
    23:00 +9°C° 0.5 mm 6 mps 764 mmHg 76%
    Show more